Weather History for KGDV - February, 2013

Change the Weather History Date:

Thursday, February 14, 2013

  Actual Average Record
Temperature  
Mean Temperature 22 °F -  
Max Temperature 30 °F 31 °F 50 °F (1998)
Min Temperature 12 °F 13 °F -9 °F (2001)
Degree Days  
Heating Degree Days 42    
Moisture  
Dew Point 18 °F    
Average Humidity 77    
Maximum Humidity 93    
Minimum Humidity 64    
Precipitation  
Precipitation 0.00 in - - ()
Sea Level Pressure  
Sea Level Pressure 30.19 in    
Wind  
Wind Speed 20 mph (NW)    
Max Wind Speed 33 mph    
Max Gust Speed 44 mph    
Visibility 9 miles    
Events      
Averages and records for this station are not official NWS values.
T = Trace of Precipitation, MM = Missing Value Source: NWS Daily Summary

Daily Weather History Graph

Daily Weather History Graph

Search for Another Location

Airport or City:

Trip Planner

Search our weather history database for the weather conditions in past years. The results will help you decide how hot, cold, wet, or windy it might be!

Date:

Astronomy

Feb. 14, 2013 Rise Set
Actual Time 7:05 AM MST 5:22 PM MST
Civil Twilight 6:33 AM MST 5:53 PM MST
Nautical Twilight 5:57 AM MST 6:29 PM MST
Astronomical Twilight 5:22 AM MST 7:05 PM MST
Moon 8:46 AM MST (2/14) 10:52 PM MST (2/14)
Length of Visible Light 11h 20m
Length of Day
10h 17m
Waxing Crescent, 22% of the Moon is Illuminated
Feb 14
Waxing Crescent
Feb 17
First Quarter
Feb 25
Full
Mar 4
Last Quarter
Mar 11
New

Hourly Weather History & Observations

Time (MST) Temp. Windchill Dew Point Humidity Pressure Visibility Wind Dir Wind Speed Gust Speed Precip Events Conditions
12:15 AM 30.2 °F 15.4 °F 19.4 °F 64% 29.92 in 10.0 mi WNW 28.8 mph 39.1 mph N/A   Overcast
12:35 AM 28.4 °F 13.3 °F 19.4 °F 69% 29.93 in 10.0 mi WNW 27.6 mph 38.0 mph N/A   Overcast
12:55 AM 28.4 °F 13.3 °F 21.2 °F 74% 29.93 in 10.0 mi WNW 27.6 mph 35.7 mph N/A   Overcast
1:15 AM 28.4 °F 14.1 °F 21.2 °F 74% 29.93 in 10.0 mi West 24.2 mph 35.7 mph N/A   Overcast
1:35 AM 30.2 °F 15.4 °F 21.2 °F 69% 29.93 in 10.0 mi WNW 28.8 mph 39.1 mph N/A   Overcast
1:55 AM 28.4 °F 13.8 °F 21.2 °F 74% 29.93 in 10.0 mi WNW 25.3 mph 40.3 mph N/A   Overcast
2:15 AM 30.2 °F 14.5 °F 21.2 °F 69% 29.93 in 10.0 mi WNW 33.4 mph 43.7 mph N/A   Overcast
2:56 AM 28.4 °F 12.7 °F 23.0 °F 80% 29.94 in 9.0 mi WNW 29.9 mph 41.4 mph N/A   Overcast
3:15 AM 28.4 °F 12.5 °F 21.2 °F 74% 29.95 in 5.0 mi NW 31.1 mph 42.6 mph N/A   Overcast
3:35 AM 28.4 °F 12.0 °F 21.2 °F 74% 29.97 in 10.0 mi NW 33.4 mph 40.3 mph N/A   Overcast
3:55 AM 26.6 °F 10.3 °F 21.2 °F 80% 29.99 in 10.0 mi NW 29.9 mph 43.7 mph N/A   Overcast
4:15 AM 26.6 °F 10.3 °F 21.2 °F 80% 30.02 in 10.0 mi NNW 29.9 mph 40.3 mph N/A   Overcast
4:35 AM 26.6 °F 12.4 °F 21.2 °F 80% 30.05 in 10.0 mi NNW 21.9 mph 36.8 mph N/A   Overcast
4:55 AM 26.6 °F 12.4 °F 21.2 °F 80% 30.06 in 10.0 mi NNW 21.9 mph 34.5 mph N/A   Overcast
5:15 AM 26.6 °F 11.7 °F 19.4 °F 74% 30.08 in 10.0 mi NNW 24.2 mph 31.1 mph N/A   Overcast
5:35 AM 26.6 °F 12.0 °F 21.2 °F 80% 30.10 in 10.0 mi NNW 23.0 mph 29.9 mph N/A   Overcast
5:55 AM 26.6 °F 12.4 °F 19.4 °F 74% 30.11 in 7.0 mi NNW 21.9 mph 29.9 mph N/A   Overcast
6:15 AM 24.8 °F 10.0 °F 19.4 °F 80% 30.13 in 7.0 mi North 21.9 mph - N/A   Overcast
6:35 AM 24.8 °F 10.7 °F 19.4 °F 80% 30.15 in 10.0 mi North 19.6 mph - N/A   Overcast
6:55 AM 24.8 °F 11.5 °F 19.4 °F 80% 30.17 in 7.0 mi North 17.3 mph 21.9 mph N/A   Mostly Cloudy
7:15 AM 24.8 °F 13.4 °F 19.4 °F 80% 30.19 in 10.0 mi North 12.7 mph - N/A   Mostly Cloudy
7:35 AM 24.8 °F 12.4 °F 19.4 °F 80% 30.20 in 3.0 mi NNW 15.0 mph - N/A   Overcast
7:55 AM 24.8 °F 13.4 °F 21.2 °F 86% 30.21 in 7.0 mi NNW 12.7 mph - N/A   Overcast
8:15 AM 24.8 °F 14.0 °F 19.4 °F 80% 30.23 in 4.0 mi NNW 11.5 mph - N/A   Overcast
8:35 AM 24.8 °F 12.9 °F 19.4 °F 80% 30.23 in 4.0 mi NNW 13.8 mph - N/A   Overcast
8:55 AM 24.8 °F 14.0 °F 21.2 °F 86% 30.24 in 2.5 mi NW 11.5 mph - N/A   Overcast
9:15 AM 26.6 °F 15.7 °F 21.2 °F 80% 30.24 in 3.0 mi NW 12.7 mph - N/A   Overcast
9:35 AM 24.8 °F 12.9 °F 19.4 °F 80% 30.25 in 3.0 mi NW 13.8 mph - N/A   Overcast
9:55 AM 24.8 °F 11.9 °F 19.4 °F 80% 30.25 in 4.0 mi NW 16.1 mph - N/A   Overcast
10:15 AM 26.6 °F 13.4 °F 19.4 °F 74% 30.25 in 7.0 mi NNW 18.4 mph 21.9 mph N/A   Mostly Cloudy
10:55 AM 26.6 °F 15.2 °F 19.4 °F 74% 30.27 in 10.0 mi NNW 13.8 mph - N/A   Mostly Cloudy
11:35 AM 26.6 °F 16.2 °F 19.4 °F 74% 30.27 in 10.0 mi NNW 11.5 mph - N/A   Mostly Cloudy
11:55 AM 26.6 °F 16.8 °F 19.4 °F 74% 30.28 in 8.0 mi NW 10.4 mph - N/A   Overcast
12:15 PM 26.6 °F 15.7 °F 17.6 °F 69% 30.28 in 10.0 mi WNW 12.7 mph - N/A   Overcast
12:35 PM 26.6 °F 15.2 °F 19.4 °F 74% 30.28 in 10.0 mi NW 13.8 mph - N/A   Overcast
12:55 PM 26.6 °F 15.2 °F 17.6 °F 69% 30.27 in 10.0 mi NW 13.8 mph - N/A   Overcast
1:15 PM 26.6 °F 16.8 °F 19.4 °F 74% 30.27 in 8.0 mi NW 10.4 mph - N/A   Overcast
1:55 PM 28.4 °F 17.5 °F 19.4 °F 69% 30.27 in 10.0 mi WNW 13.8 mph 18.4 mph N/A   Mostly Cloudy
2:15 PM 28.4 °F 17.5 °F 19.4 °F 69% 30.27 in 10.0 mi WNW 13.8 mph - N/A   Mostly Cloudy
2:35 PM 26.6 °F 15.7 °F 19.4 °F 74% 30.28 in 10.0 mi WNW 12.7 mph - N/A   Overcast
2:55 PM 26.6 °F 14.3 °F 19.4 °F 74% 30.29 in 10.0 mi WNW 16.1 mph - N/A   Overcast
3:15 PM 26.6 °F 15.2 °F 19.4 °F 74% 30.29 in 10.0 mi WNW 13.8 mph - N/A   Overcast
3:35 PM 26.6 °F 14.7 °F 19.4 °F 74% 30.29 in 10.0 mi WNW 15.0 mph 18.4 mph N/A   Overcast
3:55 PM 26.6 °F 15.7 °F 19.4 °F 74% 30.30 in 10.0 mi WNW 12.7 mph - N/A   Overcast
4:15 PM 26.6 °F 15.2 °F 17.6 °F 69% 30.29 in 10.0 mi WNW 13.8 mph - N/A   Overcast
4:35 PM 26.6 °F 15.2 °F 19.4 °F 74% 30.29 in 10.0 mi WNW 13.8 mph - N/A   Scattered Clouds
4:55 PM 26.6 °F 16.2 °F 17.6 °F 69% 30.29 in 10.0 mi NW 11.5 mph - N/A   Scattered Clouds
5:15 PM 24.8 °F 15.3 °F 17.6 °F 74% 30.29 in 10.0 mi WNW 9.2 mph - N/A   Mostly Cloudy
5:35 PM 24.8 °F 16.1 °F 15.8 °F 69% 30.29 in 10.0 mi West 8.1 mph - N/A   Mostly Cloudy
5:55 PM 21.2 °F 11.7 °F 15.8 °F 80% 30.29 in 10.0 mi WNW 8.1 mph - N/A   Partly Cloudy
6:15 PM 19.4 °F 11.5 °F 15.8 °F 86% 30.30 in 10.0 mi West 5.8 mph - N/A   Clear
6:56 PM 17.6 °F 7.3 °F 15.8 °F 93% 30.29 in 10.0 mi West 8.1 mph - N/A   Partly Cloudy
7:15 PM 17.6 °F 7.3 °F 15.8 °F 93% 30.29 in 10.0 mi West 8.1 mph - N/A   Clear
7:35 PM 19.4 °F 8.6 °F 15.8 °F 86% 30.28 in 10.0 mi WNW 9.2 mph - N/A   Partly Cloudy
8:15 PM 19.4 °F 7.2 °F 17.6 °F 93% 30.28 in 10.0 mi NW 11.5 mph 17.3 mph N/A   Mostly Cloudy
8:35 PM 19.4 °F 9.5 °F 14.0 °F 80% 30.28 in 10.0 mi NW 8.1 mph - N/A   Scattered Clouds
8:55 PM 19.4 °F 14.3 °F 12.2 °F 74% 30.29 in 10.0 mi West 3.5 mph - N/A   Clear
9:15 PM 17.6 °F 12.3 °F 12.2 °F 79% 30.29 in 10.0 mi WSW 3.5 mph - N/A   Clear
9:35 PM 19.4 °F 10.4 °F 12.2 °F 74% 30.29 in 10.0 mi NW 6.9 mph - N/A   Clear
10:15 PM 17.6 °F 7.3 °F 12.2 °F 79% 30.29 in 10.0 mi NNW 8.1 mph - N/A   Clear
10:35 PM 17.6 °F 9.3 °F 10.4 °F 73% 30.29 in 10.0 mi NNW 5.8 mph - N/A   Clear
10:55 PM 17.6 °F 9.3 °F 10.4 °F 73% 30.30 in 10.0 mi NW 5.8 mph - N/A   Clear
11:35 PM 15.8 °F 7.2 °F 8.6 °F 73% 30.30 in 10.0 mi West 5.8 mph - N/A   Clear
11:55 PM 12.2 °F 2.9 °F 8.6 °F 85% 30.30 in 10.0 mi West 5.8 mph - N/A   Clear